Location: Boitzum
(52.1496°N, 9.6943°E)
Time: 08:54:00
(UTC+00:00)

Cosmos 1500 Rocket - Pass Details

Date: 13 January 2026
Orbit: 597 x 623 km, 82.5° (Epoch: 18 February)

Event Time Altitude Azimuth Distance (km) Brightness Sun altitude
Rises 05:44:13 0° 201° (SSW) 2,852 6.9 -14.7°
Reaches altitude 10° 05:46:27 10° 206° (SSW) 1,958 6.0 -14.3°
Maximum altitude 05:50:43 55° 285° (WNW) 743 3.6 -13.7°
Drops below altitude 10° 05:55:02 10° 3° (N) 1,990 6.0 -13.1°
Sets 05:57:20 0° 8° (N) 2,904 6.9 -12.7°
